• En España
  • Lista de países
  • Para 7 días
  • Temperatura del agua
  • Mapa Satelital
  • El tiempo en el mapa
  • Informadores
  • user-avatar
    Iniciar sesión

    Tiempo cada hora Satif

    Hoy, 25 Noviembre, Sábado

    Tiempo Temperatura Precipitaciones Viento Presión Humedad
    00:00 +9°C° 0 mm 2 mps 674 mmHg 33%
    01:00 +9°C° 0 mm 2 mps 674 mmHg 34%
    02:00 +8°C° 0 mm 2 mps 674 mmHg 34%
    03:00 +8°C° 0 mm 2 mps 674 mmHg 35%
    04:00 +8°C° 0 mm 2 mps 674 mmHg 35%
    05:00 +8°C° 0 mm 2 mps 674 mmHg 35%
    06:00 +8°C° 0 mm 2 mps 673 mmHg 36%
    07:00 +9°C° 0 mm 2 mps 674 mmHg 33%
    08:00 +12°C° 0 mm 2 mps 675 mmHg 31%
    09:00 +13°C° 0 mm 3 mps 675 mmHg 29%
    10:00 +14°C° 0 mm 3 mps 675 mmHg 26%
    11:00 +16°C° 0 mm 3 mps 675 mmHg 23%
    12:00 +17°C° 0 mm 3 mps 675 mmHg 20%
    13:00 +17°C° 0 mm 3 mps 675 mmHg 21%
    14:00 +17°C° 0 mm 3 mps 675 mmHg 22%
    15:00 +17°C° 0 mm 2 mps 674 mmHg 24%
    16:00 +15°C° 0 mm 2 mps 674 mmHg 28%
    17:00 +13°C° 0 mm 2 mps 674 mmHg 32%
    18:00 +11°C° 0 mm 1 mps 674 mmHg 36%
    19:00 +11°C° 0 mm 1 mps 674 mmHg 36%
    20:00 +11°C° 0 mm 1 mps 674 mmHg 36%
    21:00 +10°C° 0 mm 1 mps 674 mmHg 36%
    22:00 +10°C° 0 mm 1 mps 674 mmHg 36%
    23:00 +10°C° 0 mm 1 mps 674 mmHg 36%

    Mañana, 26 Noviembre, Domingo

    Tiempo Temperatura Precipitaciones Viento Presión Humedad
    00:00 +10°C° 0 mm 1 mps 674 mmHg 36%
    01:00 +9°C° 0 mm 1 mps 674 mmHg 36%
    02:00 +9°C° 0 mm 1 mps 673 mmHg 37%
    03:00 +9°C° 0 mm 1 mps 673 mmHg 37%
    04:00 +9°C° 0 mm 1 mps 673 mmHg 38%
    05:00 +9°C° 0 mm 1 mps 673 mmHg 39%
    06:00 +9°C° 0 mm 1 mps 674 mmHg 40%
    07:00 +10°C° 0 mm 1 mps 674 mmHg 41%
    08:00 +11°C° 0 mm 1 mps 675 mmHg 42%
    09:00 +13°C° 0 mm 2 mps 676 mmHg 43%
    10:00 +13°C° 0 mm 2 mps 676 mmHg 46%
    11:00 +13°C° 0 mm 2 mps 676 mmHg 49%
    12:00 +13°C° 0 mm 2 mps 676 mmHg 52%
    13:00 +12°C° 0,1 mm 3 mps 676 mmHg 57%
    14:00 +12°C° 0,1 mm 3 mps 676 mmHg 62%
    15:00 +11°C° 0,1 mm 4 mps 675 mmHg 68%
    16:00 +10°C° 0,1 mm 4 mps 676 mmHg 74%
    17:00 +10°C° 0,1 mm 3 mps 676 mmHg 79%
    18:00 +9°C° 0,1 mm 3 mps 676 mmHg 85%
    19:00 +8°C° 0,1 mm 3 mps 677 mmHg 85%
    20:00 +8°C° 0,1 mm 3 mps 677 mmHg 85%
    21:00 +7°C° 0,1 mm 3 mps 677 mmHg 85%
    22:00 +7°C° 0,1 mm 3 mps 677 mmHg 85%
    23:00 +7°C° 0,1 mm 3 mps 677 mmHg 85%

    Pasado mañana, 27 Noviembre, Lunes

    Tiempo Temperatura Precipitaciones Viento Presión Humedad
    00:00 +6°C° 0,1 mm 2 mps 677 mmHg 86%
    01:00 +6°C° 0,1 mm 2 mps 677 mmHg 85%
    02:00 +6°C° 0,1 mm 2 mps 677 mmHg 84%
    03:00 +5°C° 0,1 mm 2 mps 677 mmHg 84%
    04:00 +5°C° 0 mm 2 mps 677 mmHg 85%
    05:00 +4°C° 0 mm 2 mps 677 mmHg 86%
    06:00 +5°C° 0 mm 1 mps 677 mmHg 87%
    07:00 +5°C° 0 mm 2 mps 677 mmHg 81%
    08:00 +5°C° 0 mm 2 mps 678 mmHg 76%
    09:00 +6°C° 0 mm 2 mps 678 mmHg 70%
    10:00 +7°C° 0 mm 2 mps 678 mmHg 67%
    11:00 +7°C° 0 mm 2 mps 678 mmHg 64%
    12:00 +8°C° 0 mm 2 mps 677 mmHg 61%
    13:00 +8°C° 0 mm 2 mps 677 mmHg 61%
    14:00 +8°C° 0 mm 2 mps 677 mmHg 60%
    15:00 +8°C° 0 mm 2 mps 676 mmHg 60%
    16:00 +7°C° 0 mm 2 mps 676 mmHg 65%
    17:00 +7°C° 0 mm 1 mps 676 mmHg 70%
    18:00 +7°C° 0 mm 1 mps 676 mmHg 74%
    19:00 +6°C° 0 mm 1 mps 676 mmHg 77%
    20:00 +6°C° 0 mm 1 mps 676 mmHg 79%
    21:00 +5°C° 0 mm 1 mps 676 mmHg 81%
    22:00 +5°C° 0 mm 1 mps 676 mmHg 82%
    23:00 +5°C° 0 mm 1 mps 675 mmHg 82%

    28 Noviembre, Martes

    Tiempo Temperatura Precipitaciones Viento Presión Humedad
    00:00 +4°C° 0 mm 1 mps 675 mmHg 83%
    01:00 +4°C° 0 mm 1 mps 675 mmHg 83%
    02:00 +4°C° 0 mm 1 mps 674 mmHg 82%
    03:00 +4°C° 0 mm 1 mps 674 mmHg 82%
    04:00 +4°C° 0 mm 1 mps 674 mmHg 81%
    05:00 +4°C° 0 mm 1 mps 674 mmHg 80%
    06:00 +3°C° 0 mm 2 mps 674 mmHg 79%
    07:00 +4°C° 0 mm 2 mps 674 mmHg 72%
    08:00 +6°C° 0 mm 2 mps 674 mmHg 65%
    09:00 +7°C° 0 mm 2 mps 675 mmHg 58%
    10:00 +8°C° 0 mm 3 mps 674 mmHg 53%
    11:00 +10°C° 0 mm 3 mps 674 mmHg 49%
    12:00 +11°C° 0 mm 4 mps 674 mmHg 44%
    13:00 +11°C° 0 mm 4 mps 673 mmHg 46%
    14:00 +11°C° 0 mm 4 mps 672 mmHg 48%
    15:00 +11°C° 0 mm 4 mps 672 mmHg 50%
    16:00 +10°C° 0 mm 3 mps 672 mmHg 55%
    17:00 +8°C° 0 mm 3 mps 671 mmHg 61%
    18:00 +7°C° 0 mm 3 mps 671 mmHg 67%
    19:00 +7°C° 0 mm 3 mps 671 mmHg 69%
    20:00 +7°C° 0 mm 3 mps 671 mmHg 71%
    21:00 +7°C° 0 mm 3 mps 671 mmHg 73%
    22:00 +5°C° 0 mm 3 mps 670 mmHg 74%
    23:00 +5°C° 0 mm 4 mps 670 mmHg 75%

    29 Noviembre, Miércoles

    Tiempo Temperatura Precipitaciones Viento Presión Humedad
    00:00 +5°C° 0 mm 4 mps 669 mmHg 76%
    01:00 +5°C° 0 mm 4 mps 669 mmHg 76%
    02:00 +5°C° 0 mm 4 mps 669 mmHg 76%
    03:00 +5°C° 0 mm 4 mps 668 mmHg 76%
    04:00 +5°C° 0 mm 4 mps 668 mmHg 76%
    05:00 +5°C° 0 mm 4 mps 668 mmHg 76%
    06:00 +5°C° 0 mm 4 mps 668 mmHg 76%
    07:00 +6°C° 0,1 mm 4 mps 668 mmHg 73%
    08:00 +7°C° 0,1 mm 5 mps 668 mmHg 70%
    09:00 +8°C° 0,1 mm 5 mps 668 mmHg 67%
    10:00 +10°C° 0 mm 6 mps 668 mmHg 62%
    11:00 +11°C° 0 mm 7 mps 668 mmHg 56%
    12:00 +13°C° 0 mm 8 mps 667 mmHg 50%
    13:00 +12°C° 0 mm 7 mps 667 mmHg 51%
    14:00 +13°C° 0 mm 6 mps 666 mmHg 52%
    15:00 +13°C° 0 mm 6 mps 666 mmHg 53%
    16:00 +12°C° 0 mm 5 mps 666 mmHg 56%
    17:00 +10°C° 0 mm 5 mps 666 mmHg 59%
    18:00 +8°C° 0 mm 5 mps 665 mmHg 62%
    19:00 +8°C° 0 mm 4 mps 666 mmHg 60%
    20:00 +8°C° 0 mm 4 mps 666 mmHg 59%
    21:00 +8°C° 0 mm 4 mps 666 mmHg 57%
    22:00 +8°C° 0 mm 4 mps 665 mmHg 57%
    23:00 +8°C° 0 mm 4 mps 665 mmHg 58%

    30 Noviembre, Jueves

    Tiempo Temperatura Precipitaciones Viento Presión Humedad
    00:00 +8°C° 0 mm 4 mps 665 mmHg 58%
    01:00 +7°C° 0 mm 4 mps 665 mmHg 58%
    02:00 +7°C° 0 mm 4 mps 664 mmHg 58%
    03:00 +7°C° 0 mm 4 mps 664 mmHg 58%
    04:00 +7°C° 0,1 mm 4 mps 664 mmHg 59%
    05:00 +7°C° 0,1 mm 4 mps 664 mmHg 60%
    06:00 +7°C° 0,1 mm 4 mps 664 mmHg 61%
    07:00 +7°C° 0,7 mm 5 mps 664 mmHg 65%
    08:00 +7°C° 0,7 mm 5 mps 664 mmHg 69%
    09:00 +8°C° 0,7 mm 5 mps 664 mmHg 73%
    10:00 +8°C° 0,7 mm 5 mps 664 mmHg 72%
    11:00 +9°C° 0,7 mm 6 mps 665 mmHg 72%
    12:00 +9°C° 0,7 mm 6 mps 665 mmHg 71%
    13:00 +9°C° 1 mm 5 mps 665 mmHg 76%
    14:00 +8°C° 1 mm 4 mps 665 mmHg 81%
    15:00 +8°C° 1 mm 3 mps 665 mmHg 85%
    16:00 +8°C° 0,5 mm 3 mps 665 mmHg 87%
    17:00 +8°C° 0,5 mm 2 mps 666 mmHg 88%
    18:00 +9°C° 0,5 mm 1 mps 666 mmHg 90%
    19:00 +7°C° 0,3 mm 2 mps 666 mmHg 90%
    20:00 +7°C° 0,3 mm 2 mps 667 mmHg 90%
    21:00 +7°C° 0,3 mm 2 mps 667 mmHg 90%
    22:00 +7°C° 0,6 mm 2 mps 667 mmHg 90%
    23:00 +6°C° 0,6 mm 2 mps 667 mmHg 90%
    Mostrar más